FW9692 Weather Reports


time (UTC)temp
F
wind
direction
speed
knots
gust
knots
rain 1hr
in
rain 24hr
in
rain mn
in
humidity
%
barometer
mb
20260502163035 56 192 5.2 7.8 0.00 0.19 0.00 62 1016.5
20260502161626 56 196 3.5 8.7 0.00 0.19 0.00 67 1016.5
20260502151619 55 105 4.3 10.4 0.00 0.36 0.00 72 1016.2
20260502123017 50 31 6.1 7.8 0.00 0.84 0.00 84 1014.9
20260502121608 50 36 4.3 7.0 0.00 0.84 0.00 84 1014.6
20260502120112 49 25 4.3 5.2 0.00 0.84 0.00 84 1014.6
20260502114601 49 22 3.5 6.1 0.00 0.84 0.00 84 1014.5
20260502113052 49 344 4.3 7.8 0.00 0.94 0.00 83 1014.4
20260502111555 49 31 7.0 7.8 0.00 0.94 0.00 83 1014.0
20260502110044 49 33 5.2 7.8 0.00 0.94 0.00 84 1013.9
20260502104550 49 22 4.3 7.0 0.00 0.94 0.00 84 1013.9
20260502103043 49 9 5.2 6.1 0.00 1.06 0.00 84 1013.9
20260502101547 49 11 5.2 7.0 0.00 1.06 0.00 84 1014.0
20260502091528 50 346 6.1 7.8 0.00 1.18 0.00 83 1013.5
20260502071534 51 9 7.0 8.7 0.00 1.36 1.28 84 1013.6
20260502070021 51 346 7.8 9.6 0.00 1.36 1.28 83 1013.7
20260502064514 51 9 7.8 9.6 0.00 1.36 1.28 83 1013.7
20260502063010 51 11 8.7 12.2 0.00 1.44 1.28 81 1013.7
20260502061504 51 15 7.8 9.6 0.00 1.44 1.28 80 1013.6
20260502060009 51 25 6.1 9.6 0.00 1.44 1.28 80 1013.5
20260502054509 51 25 7.0 8.7 0.00 1.44 1.28 80 1013.4
20260502053103 51 24 7.0 10.4 0.00 1.46 1.28 81 1013.3
20260502051643 51 10 7.8 10.4 0.00 1.46 1.28 81 1013.4
20260502050046 51 16 7.0 9.6 0.00 1.46 1.28 81 1013.3
20260502044542 51 27 7.8 10.4 0.00 1.46 1.28 81 1013.2
20260502043043 51 19 7.0 9.6 0.00 1.46 1.28 83 1013.2
20260502041533 51 24 7.0 9.6 0.00 1.46 1.28 83 1013.0
20260502040002 52 29 7.8 12.2 0.00 1.46 1.28 83 1012.9
20260502034557 52 41 9.6 12.2 0.00 1.46 1.28 83 1012.6
20260502033056 52 43 7.8 11.3 0.00 1.46 1.28 84 1012.4
20260502031607 52 44 7.8 11.3 0.00 1.46 1.28 85 1012.1
20260502030016 51 61 9.6 13.9 0.00 1.46 1.28 86 1011.6
20260502024511 51 57 11.3 15.6 0.00 1.46 1.28 87 1011.3
20260502023007 51 57 13.0 17.4 0.00 1.46 1.28 88 1010.9
20260502021503 51 53 13.9 19.1 0.01 1.46 1.28 88 1010.5
20260502020018 50 57 14.8 20.0 0.01 1.46 1.28 89 1010.2
20260502014522 50 57 18.2 22.6 0.02 1.46 1.28 89 1009.7
20260502013012 51 49 15.6 23.5 0.03 1.46 1.28 89 1009.3
20260502011511 52 56 12.2 17.4 0.04 1.46 1.28 89 1009.2
20260502010057 51 61 13.9 19.1 0.04 1.45 1.27 89 1008.9
20260502004553 51 47 17.4 22.6 0.04 1.44 1.26 89 1008.7
20260502003051 52 38 17.4 21.7 0.04 1.43 1.25 88 1008.5
20260502001548 52 47 16.5 20.9 0.03 1.42 1.24 88 1008.2
20260502000045 53 36 17.4 20.9 0.02 1.41 1.23 86 1007.9
20260501234550 54 51 13.9 20.9 0.01 1.40 1.22 85 1007.4
20260501233037 55 47 15.6 23.5 0.00 1.39 1.21 83 1007.0
20260501231546 55 64 18.2 24.3 0.00 1.39 1.21 82 1006.6
20260501230038 56 78 16.5 20.9 0.00 1.39 1.21 83 1006.3
20260501224533 56 83 16.5 21.7 0.01 1.39 1.21 83 1005.9
20260501223029 56 76 17.4 21.7 0.01 1.39 1.21 84 1005.5
20260501221530 57 92 15.6 21.7 0.01 1.39 1.21 83 1005.1
20260501220027 56 83 14.8 20.0 0.01 1.39 1.21 85 1005.2
20260501214535 56 84 16.5 21.7 0.01 1.39 1.21 85 1005.1
20260501213026 56 84 16.5 21.7 0.00 1.38 1.20 85 1004.9
20260501211524 57 83 14.8 23.5 0.00 1.38 1.20 83 1004.9
20260501210010 57 86 18.2 26.1 0.00 1.38 1.20 83 1004.8
20260501204611 57 95 16.5 21.7 0.00 1.38 1.20 84 1004.6
20260501203010 57 104 16.5 21.7 0.00 1.38 1.20 85 1004.3
20260501201508 56 126 14.8 20.0 0.00 1.38 1.20 86 1004.6
20260501200031 56 109 15.6 20.9 0.00 1.38 1.20 87 1004.5
20260501194533 56 123 14.8 24.3 0.00 1.38 1.20 87 1004.5
20260501193032 55 119 16.5 20.9 0.01 1.38 1.20 88 1004.5
20260501191530 55 115 13.9 17.4 0.01 1.38 1.20 88 1004.6
20260501190028 55 107 18.2 24.3 0.01 1.38 1.20 88 1004.5
20260501184528 55 101 15.6 23.5 0.02 1.38 1.20 88 1004.2
20260501183027 55 110 15.6 21.7 0.01 1.37 1.19 88 1004.3
20260501181532 57 101 14.8 19.1 0.01 1.37 1.19 87 1004.5
20260501180018 58 100 11.3 19.1 0.01 1.37 1.19 85 1004.5
20260501174510 58 110 10.4 16.5 0.00 1.36 1.18 85 1004.6